Погода в Новаторе

Россия / Вологодская область     60°44′53″N   46°12′36″E
темп.,
°C
ветер,
м/с
пор.,
м/с
влажн.,
%
обл.,
%
осадки,
мм/ч
давл.,
гПа
погр.,
м
18 апреля, вс
вс1800:00+3сз39825 0.0 1027247
03:00+3ссв41187100 0.0 1028471
06:00+2св497474 0.0 1030678
09:00+2св57480 0.0 10321066
12:00+5всв46375 0.0 10331517
15:00+6всв46375 0.0 10331648
18:00+4всв36465 0.0 10341306
21:000всв39655 0.0 1035234
19 апреля, пн
пн1900:00−1всв28725 0.0 1036225
03:00−2в26720 0.0 1037173
06:00−1в24655 0.0 1038198
09:00+4вюв244220 0.0 10381262
12:00+6вюв233514 0.0 10371596
15:00+7в23345 0.0 10351626
18:00+5в23460 0.0 103597
21:00+1вюв22620 0.0 103611
20 апреля, вт
вт2000:00−1ююв11670 0.0 103610
03:00−1ююв11690 0.0 103610
06:000ю12620 0.0 103698
09:00+6ююв22390 0.0 1035751
12:00+8ююв23310 0.0 10341260
15:00+10ююв23310 0.0 10321355
18:00+8юв23450 0.0 103080
21:00+3юв23630 0.0 103158
21 апреля, ср
ср2100:00+1юв22733 0.0 103034
03:00−1юв287791 0.0 1030158
06:00+2вюв31263100 0.0 1028386
09:00+7юв61138100 0.0 1026948
12:00+11юв61434100 0.0 10231398
15:00+11юв71535100 0.0 10201523
18:00+9ююв71542100 0.0 10181514
21:00+7ююв71655100 0.0 10171335
22 апреля, чт
чт2200:00+5ююв61477100 0.0 10161049
03:00+4ююв61391100 0.2 1015951
06:00+4ююв61491100 0.0 1015974
09:00+5ю61483100 0.0 10151350
12:00+7ююз61370100 0.1 10171512
15:00+8ююз51066100 0.2 10181542
18:00+8ю5126479 0.1 10191277
21:00+6ю5147912 0.1 1019774